This demonstration page uses our WeatherBlox Daily Observations layout. Learn more.

Left ArrowRight Arrow

34.16533, -84.80231

Hourly Observations for December 18, 2017

Temp ( °F °C ) Dew Point ( °F °C ) Humidity (%) Winds ( mph kmh ) Pressure ( in mb ) Visibility ( mi km ) Precip ( " mm )
12:29 am 00:29 Cloudy 46 7.8 45 7.2 96 96 Calm 30.18 1022 7 11 0.00 0.00
12:53 am 00:53 Cloudy 46 7.8 45 7.2 96 96 Calm 30.17 1022 8 13 0.00 0.00
1:53 am 01:53 Cloudy 45 7.2 45 7.2 100 100 Calm 30.17 1022 7 11 0.00 0.00
2:53 am 02:53 Cloudy with Mist and Fog 46 7.8 46 7.8 100 100 Calm 30.18 1022 6 10 0.00 0.00
3:53 am 03:53 Cloudy with Mist and Fog 46 7.8 46 7.8 100 100 Calm 30.16 1022 5 8 0.00 0.00
4:02 am 04:02 Cloudy with Mist and Fog 46 7.8 46 7.8 100 100 Calm 30.18 1022 5 8 0.00 0.00
4:41 am 04:41 Cloudy with Mist and Fog 46 7.8 46 7.8 100 100 Calm 30.18 1022 5 8 0.00 0.00
4:53 am 04:53 Cloudy with Mist and Fog 46 7.8 46 7.8 100 100 Calm 30.16 1022 5 8 0.00 0.00
5:53 am 05:53 Cloudy with Mist and Fog 46 7.8 46 7.8 100 100 Calm 30.16 1022 4 6 0.00 0.00
6:34 am 06:34 Cloudy with Mist and Fog 46 7.8 46 7.8 100 100 Calm 30.18 1022 3 4 0.00 0.00
6:50 am 06:50 Cloudy with Mist and Fog 46 8 46 8 100 100 Calm 30.21 1023 1 2 0.00 0.00
6:53 am 06:53 Cloudy with Mist and Fog 46 7.8 46 7.8 100 100 Calm 30.19 1022 1 2 0.00 0.00
7:01 am 07:01 Mostly Cloudy with Fog 46 7.8 46 7.8 100 100 Calm 30.21 1023 1 1 0.00 0.00
7:13 am 07:13 Mostly Cloudy with Fog 46 7.8 46 7.8 100 100 Calm 30.21 1023 0 0 0.00 0.00
7:53 am 07:53 Mostly Cloudy with Fog 46 7.8 46 7.8 100 100 Calm 30.19 1022 0 0 0.00 0.00
8:53 am 08:53 Mostly Cloudy with Fog 46 7.8 46 7.8 100 100 Calm 30.21 1023 0 0 0.00 0.00
9:23 am 09:23 Mostly Cloudy with Fog 47 8.3 47 8.3 100 100 Calm 30.21 1023 1 1 0.00 0.00
9:53 am 09:53 Cloudy with Mist and Fog 47 8.3 47 8.3 100 100 Calm 30.21 1023 1 2 0.00 0.00
10:34 am 10:34 Cloudy with Mist and Fog 49 9.4 49 9.4 100 100 Calm 30.24 1024 3 5 0.00 0.00
10:53 am 10:53 Cloudy with Mist and Fog 49 9.4 49 9.4 100 100 VRB 3 6 30.22 1023 5 8 0.00 0.00
11:24 am 11:24 Cloudy 50 10 50 10 100 100 VRB 3 6 30.21 1023 7 11 0.00 0.00
11:49 am 11:49 Cloudy with Mist and Fog 52 11 50 10 94 94 Calm 30.21 1023 5 8 0.00 0.00
11:53 am 11:53 Cloudy with Mist and Fog 52 11.1 51 10.6 97 97 Calm 30.20 1023 5 8 0.00 0.00
12:09 pm 12:09 Cloudy with Mist and Fog 54 12.2 52 11.1 93 93 Calm 30.21 1023 6 10 0.00 0.00
12:19 pm 12:19 Cloudy 54 12.2 52 11.1 93 93 VRB 3 6 30.21 1023 8 13 0.00 0.00
12:53 pm 12:53 Cloudy 52 11.1 51 10.6 97 97 VRB 3 6 30.18 1022 7 11 0.00 0.00
1:53 pm 13:53 Cloudy 54 12.2 52 11.1 93 93 Calm 30.18 1022 8 13 0.00 0.00
2:32 pm 14:32 Cloudy 55 12.8 52 11.1 90 90 Calm 30.18 1022 10 16 0.00 0.00
2:53 pm 14:53 Cloudy 56 13.3 52 11.1 87 87 VRB 5 7 30.17 1022 10 16 0.00 0.00
3:35 pm 15:35 Mostly Cloudy 56 13.3 52 11.1 87 87 Calm 30.18 1022 10 16 0.00 0.00
3:53 pm 15:53 Mostly Cloudy 56 13.3 52 11.1 87 87 Calm 30.16 1022 10 16 0.00 0.00
4:53 pm 16:53 Sunny 55 12.8 52 11.1 90 90 Calm 30.16 1021 10 16 0.00 0.00
5:53 pm 17:53 Clear 49 9.4 49 9.4 100 100 Calm 30.16 1021 10 16 0.00 0.00
6:53 pm 18:53 Clear with Mist and Fog 47 8.3 47 8.3 100 100 Calm 30.18 1022 6 10 0.00 0.00
7:49 pm 19:49 Mostly Clear with Mist and Fog 45 7 45 7 100 100 Calm 30.18 1022 3 5 0.00 0.00
7:53 pm 19:53 Partly Cloudy with Mist and Fog 45 7.2 45 7.2 100 100 Calm 30.18 1022 2 3 0.00 0.00
8:06 pm 20:06 Mostly Clear with Mist and Fog 45 7.2 45 7.2 100 100 Calm 30.18 1022 4 6 0.00 0.00
8:18 pm 20:18 Mostly Clear with Mist and Fog 44 6.7 44 6.7 100 100 Calm 30.18 1022 2 2 0.00 0.00
8:34 pm 20:34 Clear with Mist and Fog 44 6.7 44 6.7 100 100 Calm 30.21 1023 3 5 0.00 0.00
8:44 pm 20:44 Mostly Clear with Mist and Fog 43 6.1 43 6.1 100 100 Calm 30.21 1023 3 4 0.00 0.00
8:51 pm 20:51 Mostly Cloudy with Mist and Fog 43 6 43 6 100 100 Calm 30.21 1023 1 2 0.00 0.00
8:53 pm 20:53 Mostly Cloudy with Mist and Fog 43 6.1 43 6.1 100 100 Calm 30.19 1022 1 1 0.00 0.00
9:17 pm 21:17 Mostly Cloudy with Fog 44 6.7 44 6.7 100 100 Calm 30.21 1023 0 0 0.00 0.00
9:25 pm 21:25 Mostly Cloudy with Fog 43 6.1 43 6.1 100 100 Calm 30.21 1023 1 1 0.00 0.00
9:53 pm 21:53 Mostly Cloudy with Fog 41 5 41 5 100 100 Calm 30.21 1023 1 1 0.00 0.03
10:03 pm 22:03 Mostly Cloudy with Light Rain 42 5.6 42 5.6 100 100 Calm 30.21 1023 0 0 0.00 0.03
10:15 pm 22:15 Mostly Cloudy with Mist and Fog 40 4.4 40 4.4 100 100 Calm 30.24 1024 1 1 0.00 0.03
10:23 pm 22:23 Cloudy with Light Rain 42 5.6 42 5.6 100 100 Calm 30.21 1023 2 2 0.00 0.03
10:48 pm 22:48 Mostly Cloudy with Light Rain 43 6 43 6 100 100 Calm 30.21 1023 1 1 0.00 0.03
10:53 pm 22:53 Mostly Cloudy with Light Rain 41 5 41 5 100 100 Calm 30.20 1023 1 2 0.00 0.03
11:06 pm 23:06 Mostly Cloudy with Fog 40 4.4 40 4.4 100 100 Calm 30.24 1024 1 1 0.00 0.03
11:13 pm 23:13 Mostly Cloudy with Fog 41 5 41 5 100 100 Calm 30.21 1023 0 0 0.00 0.03
11:53 pm 23:53 Mostly Cloudy with Fog 41 5 41 5 100 100 Calm 30.21 1023 0 0 0.00 0.03

Powered by AerisWeather